DW7210 Weather Reports


Display with metric or nautical units.
time (UTC)temp
F
wind
direction
speed
MPH
gust
MPH
rain 1hr
in
rain 24hr
in
rain mn
in
humidity
%
barometer
mb
20260905153317 79 0.0 1.0 0.00 0.00 0.00 57 1020.8
20260905152317 79 293 1.0 2.0 0.00 0.00 0.00 56 1020.8
20260905151317 80 0.0 0.0 0.00 0.00 0.00 56 1021.1
20260905150317 79 0.0 0.0 0.00 0.00 0.00 57 1020.8
20260905145317 79 0.0 0.0 0.00 0.00 0.00 58 1020.9
20260905144317 78 0.0 0.0 0.00 0.00 0.00 60 1020.8
20260905143317 78 0.0 0.0 0.00 0.00 0.00 60 1020.8
20260905142317 78 0.0 0.0 0.00 0.00 0.00 60 1020.8
20260905141317 77 0.0 0.0 0.00 0.00 0.00 62 1020.6
20260905140317 76 0.0 0.0 0.00 0.00 0.00 67 1020.8
20260905135337 73 0.0 0.0 0.00 0.00 0.00 70 1020.1
20260905134357 72 0.0 0.0 0.00 0.00 0.00 73 1020.0
20260905133337 71 0.0 0.0 0.00 0.00 0.00 74 1019.8
20260905132317 71 0.0 0.0 0.00 0.00 0.00 74 1019.7
20260905131317 71 0.0 0.0 0.00 0.00 0.00 76 1019.3
20260905130317 70 0.0 0.0 0.00 0.00 0.00 75 1019.3
20260905125337 71 0.0 0.0 0.00 0.00 0.00 75 1019.4
20260905124337 71 0.0 0.0 0.00 0.00 0.00 74 1019.3
20260905123317 71 0.0 0.0 0.00 0.00 0.00 75 1019.4
20260905122337 71 0.0 0.0 0.00 0.00 0.00 74 1019.4
20260905121337 72 0.0 0.0 0.00 0.00 0.00 74 1019.6
20260905120316 72 0.0 0.0 0.00 0.00 0.00 74 1019.3
20260905115317 71 0.0 0.0 0.00 0.00 0.00 74 1019.4
20260905114317 72 0.0 0.0 0.00 0.00 0.00 73 1019.7
20260905113317 72 0.0 0.0 0.00 0.01 0.00 72 1019.4
20260905112317 73 0.0 0.0 0.00 0.01 0.00 71 1019.7
20260905111316 73 0.0 0.0 0.00 0.01 0.00 71 1019.7
20260905110336 73 0.0 0.0 0.00 0.01 0.00 71 1019.6
20260905105316 73 0.0 0.0 0.00 0.02 0.00 71 1019.7
20260905104316 73 0.0 0.0 0.00 0.02 0.00 72 1019.8
20260905103317 73 0.0 0.0 0.00 0.02 0.00 71 1019.6
20260905102317 73 0.0 0.0 0.00 0.02 0.00 71 1019.6
20260905101317 73 0.0 1.0 0.00 0.02 0.00 71 1019.6
20260905100316 73 0.0 0.0 0.00 0.02 0.00 71 1019.4
20260905095316 73 203 3.0 5.0 0.00 0.02 0.00 71 1019.4
20260905094316 73 158 2.0 3.0 0.00 0.02 0.00 70 1019.3
20260905093316 74 0.0 0.0 0.00 0.02 0.00 69 1018.7
20260905092417 74 225 1.0 3.0 0.00 0.02 0.00 69 1018.7
20260905091316 74 180 2.0 3.0 0.00 0.02 0.00 69 1018.6
20260905090316 74 0.0 0.0 0.00 0.02 0.00 69 1018.7
20260905085336 74 0.0 0.0 0.00 0.02 0.00 69 1018.6
20260905084317 73 0.0 0.0 0.00 0.02 0.00 68 1018.5
20260905083316 74 0.0 0.0 0.00 0.02 0.00 67 1018.5
20260905082317 74 0.0 0.0 0.00 0.02 0.00 67 1018.5
20260905081317 75 0.0 0.0 0.00 0.02 0.00 66 1018.7
20260905080317 75 0.0 0.0 0.00 0.02 0.00 64 1018.4
20260905075316 75 0.0 0.0 0.00 0.02 0.00 64 1018.6
20260905074317 76 0.0 0.0 0.00 0.02 0.00 62 1018.5
20260905073316 76 0.0 0.0 0.00 0.02 0.00 63 1018.6
20260905072316 76 0.0 0.0 0.00 0.02 0.00 63 1018.7
20260905071316 77 0.0 0.0 0.00 0.02 0.00 62 1018.7
20260905070316 77 0.0 0.0 0.00 0.03 0.00 61 1018.8
20260905065317 78 0.0 0.0 0.00 0.03 0.00 57 1018.5
20260905064316 78 0.0 0.0 0.00 0.03 0.00 57 1018.8
20260905063316 78 0.0 0.0 0.00 0.03 0.00 56 1018.1
20260905062317 79 0.0 0.0 0.00 0.03 0.00 55 1018.1
20260905061316 79 0.0 0.0 0.00 0.03 0.00 56 1018.1
20260905060317 79 0.0 0.0 0.00 0.03 0.00 55 1018.1
20260905055317 79 0.0 0.0 0.00 0.03 0.03 55 1018.0
20260905054317 80 0.0 0.0 0.00 0.03 0.03 53 1018.3
20260905053317 80 0.0 0.0 0.00 0.03 0.03 52 1018.0
20260905052317 81 0.0 0.0 0.00 0.03 0.03 51 1017.8
20260905051317 81 0.0 0.0 0.00 0.03 0.03 50 1017.8
20260905050317 81 0.0 0.0 0.00 0.03 0.03 50 1018.0
20260905045316 81 0.0 0.0 0.00 0.03 0.03 50 1017.8
20260905044317 81 0.0 0.0 0.00 0.03 0.03 50 1017.9
20260905043337 81 0.0 0.0 0.00 0.03 0.03 50 1017.5
20260905042317 81 0.0 0.0 0.00 0.03 0.03 52 1017.7
20260905041317 80 0.0 0.0 0.00 0.03 0.03 54 1017.6
20260905040317 81 0.0 0.0 0.00 0.03 0.03 52 1017.1
20260905035317 82 0.0 0.0 0.00 0.03 0.03 50 1017.4
20260905034337 82 0.0 0.0 0.00 0.03 0.03 50 1017.3
20260905033317 82 0.0 0.0 0.00 0.03 0.03 49 1016.8
20260905032317 83 0.0 0.0 0.00 0.03 0.03 48 1017.0
20260905031317 84 0.0 0.0 0.00 0.03 0.03 46 1016.9
20260905030337 84 0.0 0.0 0.00 0.03 0.03 44 1016.7
20260905025317 84 225 2.0 4.0 0.00 0.03 0.03 43 1016.6
20260905024317 84 0.0 0.0 0.00 0.03 0.03 44 1016.3
20260905023317 84 203 2.0 3.0 0.00 0.03 0.03 44 1016.0
20260905022317 84 0.0 0.0 0.00 0.03 0.03 45 1016.0
20260905021316 84 0.0 0.0 0.00 0.03 0.03 44 1016.0
20260905020317 84 0.0 0.0 0.00 0.03 0.03 44 1016.0
20260905015357 85 0.0 0.0 0.00 0.03 0.03 42 1015.8
20260905014316 85 0.0 0.0 0.00 0.03 0.03 41 1015.7
20260905013317 86 0.0 0.0 0.00 0.03 0.03 41 1015.9
20260905012317 86 0.0 0.0 0.00 0.03 0.03 40 1015.8
20260905011316 87 0.0 0.0 0.00 0.03 0.03 40 1015.7
20260905010316 87 0.0 0.0 0.00 0.03 0.03 39 1015.6
20260905005317 87 0.0 0.0 0.00 0.03 0.03 39 1015.5
20260905004316 88 0.0 0.0 0.00 0.03 0.03 39 1015.5
20260905003317 89 0.0 0.0 0.00 0.03 0.03 38 1015.7
20260905002316 90 0.0 0.0 0.00 0.03 0.03 38 1015.7
20260905001317 90 0.0 0.0 0.00 0.03 0.03 37 1015.7
20260905000318 90 225 1.0 2.0 0.00 0.03 0.03 37 1015.6
20260904235337 90 0.0 1.0 0.00 0.03 0.03 37 1015.6
20260904234417 90 158 2.0 4.0 0.00 0.03 0.03 38 1015.5
20260904233317 90 225 4.0 8.0 0.00 0.03 0.03 37 1015.7
20260904232317 92 338 1.0 4.0 0.00 0.03 0.03 36 1015.9
20260904231316 91 0.0 0.0 0.00 0.03 0.03 38 1015.8
20260904230317 89 0.0 0.0 0.00 0.03 0.03 38 1015.6
20260904225316 90 0.0 0.0 0.00 0.03 0.03 38 1015.7
20260904224316 90 270 2.0 4.0 0.00 0.03 0.03 37 1015.7
20260904223317 90 180 1.0 4.0 0.00 0.03 0.03 38 1016.1
20260904222316 90 0.0 1.0 0.00 0.03 0.03 37 1016.2
20260904221316 89 0.0 2.0 0.00 0.03 0.03 38 1016.1
20260904220316 88 0.0 2.0 0.00 0.03 0.03 38 1016.2
20260904215356 89 270 4.0 7.0 0.00 0.03 0.03 37 1016.5
20260904214316 89 225 5.0 9.0 0.00 0.03 0.03 40 1016.5
20260904213316 89 315 3.0 7.0 0.00 0.03 0.03 39 1016.7
20260904212317 88 315 3.0 5.0 0.00 0.03 0.03 42 1016.6
20260904211316 88 293 3.0 4.0 0.00 0.03 0.03 42 1016.8
20260904210316 87 315 1.0 2.0 0.00 0.03 0.03 45 1017.0
20260904205316 87 293 2.0 6.0 0.00 0.03 0.03 44 1017.2
20260904204336 86 338 2.0 3.0 0.00 0.03 0.03 45 1017.2
20260904203316 87 225 3.0 6.0 0.00 0.03 0.03 44 1017.3
20260904202316 86 270 4.0 6.0 0.00 0.03 0.03 45 1017.3
20260904201316 86 315 3.0 6.0 0.00 0.03 0.03 46 1017.3
20260904200317 87 315 3.0 5.0 0.00 0.03 0.03 47 1017.6
20260904195316 87 315 5.0 6.0 0.00 0.03 0.03 45 1017.7
20260904194316 85 270 1.0 4.0 0.00 0.03 0.03 49 1017.7
20260904193316 86 293 5.0 7.0 0.00 0.03 0.03 48 1018.5
20260904192316 85 293 3.0 5.0 0.00 0.03 0.03 50 1018.8
20260904191316 84 0.0 0.0 0.00 0.03 0.03 51 1018.6
20260904190336 85 293 3.0 5.0 0.00 0.03 0.03 49 1019.5
20260904185316 83 315 2.0 4.0 0.00 0.03 0.03 53 1019.3
20260904184316 84 293 5.0 6.0 0.00 0.03 0.03 52 1019.6
20260904183317 84 293 4.0 6.0 0.00 0.03 0.03 51 1020.0
20260904182316 83 293 3.0 6.0 0.00 0.03 0.03 54 1020.2
20260904181316 81 270 1.0 2.0 0.00 0.03 0.03 58 1020.0
20260904180316 81 315 4.0 7.0 0.00 0.03 0.03 56 1020.4
20260904175337 80 315 3.0 4.0 0.00 0.03 0.03 59 1020.1
20260904174316 79 315 3.0 4.0 0.00 0.03 0.03 59 1020.4
20260904173316 80 293 2.0 6.0 0.00 0.03 0.03 59 1020.7
20260904172316 79 315 3.0 5.0 0.00 0.03 0.03 60 1020.5
20260904171316 79 315 4.0 5.0 0.00 0.03 0.03 61 1020.6
20260904170316 78 225 1.0 2.0 0.00 0.03 0.03 63 1020.6
20260904165316 79 0.0 0.0 0.00 0.03 0.03 62 1020.8
20260904164316 78 0.0 1.0 0.00 0.03 0.03 62 1020.6
20260904163316 79 0.0 0.0 0.00 0.03 0.03 62 1020.7
20260904162316 77 293 1.0 5.0 0.00 0.03 0.03 64 1020.5
20260904161316 76 293 3.0 4.0 0.00 0.03 0.03 63 1020.4
20260904160316 76 0.0 1.0 0.00 0.03 0.03 66 1020.5
20260904155316 75 315 1.0 4.0 0.00 0.03 0.03 66 1020.0
20260904154316 75 315 2.0 5.0 0.00 0.03 0.03 66 1019.9